Regional Weather Roundup
Issued by NWS

Current Version | Previous Version | Text Only | Print | Product List | Glossary On
Versions: 1 2 3 4 5 6 7 8 9 10 11 12 13 14 15 16 17 18 19 20 21 22 23 24 25 26 27 28 29 30 31 32 33 34 35 36 37 38 39 40 41 42 43 44 45 46 47 48 49 50
000
ASUS44 KOUN 031710
RWROK

WEATHER ROUNDUP FOR OKLAHOMA
NATIONAL WEATHER SERVICE NORMAN OK
1200 PM CDT FRI JUL 03 2015

NOTE: "FAIR" INDICATES FEW OR NO CLOUDS BELOW 12,000 FEET WITH NO
      SIGNIFICANT WEATHER AND/OR OBSTRUCTIONS TO VISIBILITY.

OKZ001>007-009>012-014-015-017-031800-
NORTHWEST OKLAHOMA AND THE PANHANDLE

CITY           SKY/WX    TMP DP  RH WIND       PRES   REMARKS
GAGE           SUNNY     84  65  52 NE5       30.03S
GUYMON         SUNNY     83  62  49 VRB5      30.06F
ENID/WOODRING  MOSUNNY   90  63  40 NW10      29.94S HX  90
$$

OKZ016-021>023-033>039-044-045-031800-
SOUTHWEST OKLAHOMA

CITY           SKY/WX    TMP DP  RH WIND       PRES   REMARKS
LAWTON/REGL    PTSUNNY   89  70  53 VRB6      29.95S HX  94
LAWTON/FT SILL MOSUNNY   87  73  62 VRB5      29.94R HX  95
FREDERICK      MOSUNNY   88  70  55 W8        29.94R HX  93
CLINTON        MOSUNNY   82  69  64 N8        30.02S
HOBART         MOSUNNY   87  70  56 NE12      29.99R HX  92
ALTUS AFB      PTSUNNY   86  75  70 N6        29.97R HX  95
$$

OKZ018>020-024>031-031800-
CENTRAL OKLAHOMA

CITY           SKY/WX    TMP DP  RH WIND       PRES   REMARKS
OKLAHOMA CITY  PTSUNNY   82  73  74 NW6       29.97S
OKC/WILEY POST MOSUNNY   83  72  69 CALM      29.97S
OKC/TINKER AFB MOSUNNY   82  71  71 NW6       29.96S
STILLWATER     SUNNY     87  71  58 N9        29.94S HX  93
GUTHRIE        MOSUNNY   85  71  63 VRB6      29.96R HX  90
$$

OKZ008-013-054>072-031800-
NORTHEAST OKLAHOMA

CITY           SKY/WX    TMP DP  RH WIND       PRES   REMARKS
TULSA          MOSUNNY   84  73  69 NW6       29.92S HX  90
TULSA/JONES    MOSUNNY   85  72  65 VRB3      29.92S HX  91
PONCA CITY     SUNNY     88  66  48 VRB5      29.94S HX  90
BARTLESVILLE   MOSUNNY   88  72  58 VRB3      29.92S HX  94
MUSKOGEE       PTSUNNY   82  73  74 W9        29.94S
$$

OKZ032-040>043-046>053-073>077-031800-
SOUTH CENTRAL/SOUTHEAST OKLAHOMA

CITY           SKY/WX    TMP DP  RH WIND       PRES   REMARKS
ARDMORE/DWNTWN PTSUNNY   75  73  94 SW3       29.97R
MCALESTER      MOSUNNY   83  72  69 SW16      29.95S
$$



USA.gov is the U.S. government's official web portal to all federal, state and local government web resources and services.